Skip Page Navigation
NASA JPL Caltech
NASA Logo - Jet Propulsion Laboratory + View the NASA Portal
+ Near-Earth Object (NEO) Program
Search JPL
JPL Home Earth Solar System Stars & Galaxies Technology
JPL Solar System Dynamics
BODIES ORBITS EPHEMERIDES TOOLS PHYSICAL DATA DISCOVERY FAQ SITE MAP
JPL Small-Body Database Browser
Search: [ help ]  
314082 Dryope (2005 CZ36)
Classification: Apollo [NEO, PHA]          SPK-ID: 2314082
Ephemeris | Orbit Diagram | Orbital Elements | Physical Parameters | Discovery Circumstances | Close-Approach Data ]

[ hide orbit diagram ]
Orbit Diagram
Note: Make sure you have Java enabled on your browser to see the applet. This applet is provided as a 3D orbit visualization tool. The applet was implemented using 2-body methods, and hence should not be used for determining accurate long-term trajectories (over several years or decades) or planetary encounter circumstances. For accurate long-term ephemerides, please instead use our Horizons system.
Orbit Viewer

Additional Notes: the orbits shown in the applet are color coded. The planets are white lines, and the asteroid/comet is a blue line. The bright white line indicates the portion of the orbit that is above the ecliptic plane, and the darker portion is below the ecliptic plane. Likewise for the asteroid/comet orbit, the light blue indicates the portion above the ecliptic plane, and the dark blue the portion below the ecliptic plane.

Orbit Viewer applet originally written and kindly provided by Osamu Ajiki (AstroArts), and further modified by Ron Baalke (JPL).


Orbital Elements at Epoch 2456400.5 (2013-Apr-18.0) TDB
Reference: JPL 28 (heliocentric ecliptic J2000)
 Element Value Uncertainty (1-sigma)   Units 
e .5770078446482211 1.7436e-07  
a 2.235442190823778 7.1548e-08 AU
q .9455745104608525 3.7427e-07 AU
i 16.12944921508794 2.1529e-05 deg
node 116.8978956155737 5.9409e-05 deg
peri 139.232798285072 6.3703e-05 deg
M 115.7405847337301 3.8897e-05 deg
tp 2456008.011656393225
(2012-Mar-21.51165639)
0.00011549 JED
period 1220.797389468011
3.34
5.861e-05
1.605e-07
d
yr
n .2948892282255598 1.4158e-08 deg/d
Q 3.525309871186704 1.1283e-07 AU
  Orbit Determination Parameters
   # obs. used (total)      97  
   data-arc span      2832 days (7.75 yr)  
   first obs. used      2005-01-19  
   last obs. used      2012-10-21  
   planetary ephem.      DE405  
   SB-pert. ephem.      SB405-CPV-2  
   condition code      0  
   fit RMS      .82511  
   data source      ORB  
   producer      Otto Matic  
   solution date      2013-Apr-29 15:41:41  

Additional Information
 Earth MOID = .015889 AU 
 T_jup = 3.356 
[ show covariance matrix ]

Ephemeris | Orbit Diagram | Orbital Elements | Physical Parameters | Discovery Circumstances | Close-Approach Data ]

Physical Parameter Table
Parameter Symbol Value Units Sigma Reference Notes
absolute magnitude H 17.501 mag .42783 28 autocmod 2.5c

314082 Dryope           Discovered 2005 Feb. 6 by E. W. Elst and H. Debehogne at Uccle.
Dryope was the daughter of King Dryops. She became the lover of Apollo. Her son Amphissus built a temple in honor of his father on Mount Oeta, not far from the Pass of the Thermopylae.
NOTE: some special characters may not display properly (any characters within {} are an attempt to place the proper accent above a character)
Reference: 20121228/MPCPages.arcLast Updated: 2013-01-02

[ show close-approach data ]
Ephemeris | Orbit Diagram | Orbital Elements | Physical Parameters | Discovery Circumstances | Close-Approach Data ]
ABOUT SSD CREDITS/AWARDS PRIVACY/COPYRIGHT GLOSSARY LINKS
FirstGov 2013-May-25 20:31 UT
(server date/time)  
NASA Home Page
Site Manager:   Donald K. Yeomans
Webmaster  Alan B. Chamberlin